Regional Weather Roundup
Issued by NWS

Home | Current Version | Previous Version | Text Only | Print | Product List | Glossary On
Versions: 1 2 3 4 5 6 7 8 9 10 11 12 13 14 15 16 17 18 19 20 21 22 23 24 25 26 27 28 29 30 31 32 33 34 35 36 37 38 39 40 41 42 43 44 45 46 47 48 49 50
000
ASUS45 KREV 012110
RWRNV
NEVADA REGIONAL WEATHER ROUNDUP
NATIONAL WEATHER SERVICE RENO NV
200 PM PDT WED JUL 01 2015

NOTE: "FAIR" INDICATES FEW OR NO CLOUDS BELOW 12,000 FEET WITH NO
SIGNIFICANT WEATHER AND/OR OBSTRUCTIONS TO VISIBILITY.

NVZ001-003-004-012200-
WESTERN NEVADA

CITY           SKY/WX    TMP DP  RH WIND       PRES   REMARKS
RENO           CLOUDY    95  45  17 VRB3      30.09F
CARSON CITY    FAIR      93  41  16 NW3       30.12F
MINDEN           N/A    N/A N/A N/A MISG        N/A
SLIDE MTN        N/A     72  48  43 W9          N/A
PYRAMID LAKE     N/A     90 N/A N/A VRB6        N/A
FALLON         CLOUDY    98  45  16 W7        30.04F
LOVELOCK       MOSUNNY   97  45  16 VRB3      30.03F
HAWTHORNE      SUNNY     97  45  16 W9        30.07F
$$

NVZ002-CAZ072-073-012200-
NORTHERN AND CENTRAL SIERRA

CITY           SKY/WX    TMP DP  RH WIND       PRES   REMARKS
S. LAKE TAHOE  CLOUDY    87  52  29 N8        30.27F
TRUCKEE        CLOUDY    84  54  34 W12       30.25S
SQUAW VLY 8000 NOT AVBL
SUSANVILLE     SUNNY     99  41  13 SW12      30.07F
BLUE CANYON    CLOUDY    78  50  37 SW6       30.26S
MAMMOTH LAKES  FAIR      79  46  31 E5        30.34F
BRIDGEPORT     FAIR      86  46  24 VRB3      30.27F
$$

NVZ030-031-036-012200-
NORTHERN NEVADA

CITY           SKY/WX    TMP DP  RH WIND       PRES   REMARKS
ELKO           PTSUNNY   98  42  14 E5        30.11F
WINNEMUCCA     PTSUNNY  100  43  14 NW8       30.05F
WENDOVER       SUNNY     97  48  19 SE14      30.06F
$$

NVZ035-037-012200-
CENTRAL NEVADA

CITY           SKY/WX    TMP DP  RH WIND       PRES   REMARKS
ELY            MOSUNNY   94  39  14 MISG      30.19F
EUREKA           N/A     96  37  12 VRB7      30.16F
$$

NVZ013-014-012200-
SOUTH CENTRAL NEVADA

CITY           SKY/WX    TMP DP  RH WIND       PRES   REMARKS
TONOPAH        SUNNY     94  44  17 W9        30.14F
$$

NVZ017-020-022-012200-
SOUTHERN NEVADA

CITY           SKY/WX    TMP DP  RH WIND       PRES   REMARKS
LAS VEGAS      MOSUNNY  105  53  17 VRB6      29.83F
N. LAS VEGAS   SUNNY    104  54  19 W8        29.85F
NELLIS AFB     SUNNY    105  57  20 S7        29.82F
HENDERSON      MOSUNNY  104  58  21 S9        29.90F
MERCURY        SUNNY     98  50  19 W15G22    29.98F
$$



USA.gov is the U.S. government's official web portal to all federal, state and local government web resources and services.